Location: Altmatt
(47.1333°N, 8.7000°E)
Time: 08:38:09
(UTC+00:00)

Cosmos 2221 - Pass Details

Date: 13 July 2020
Orbit: 592 x 616 km, 82.5° (Epoch: 04 August)

Event Time Altitude Azimuth Distance (km) Brightness Sun altitude
Rises 20:57:42 0° 345° (NNW) 2,886 7.4 -13.0°
Reaches altitude 10° 21:00:00 10° 340° (NNW) 1,973 6.4 -13.3°
Maximum altitude 21:04:11 49° 267° (W) 791 3.3 -13.7°
Enters shadow 21:08:03 12° 193° (SSW) 1,835 4.6 -14.0°
